When you browse on this site, cookies collect data to enhance your experience and personalize the content and advertising you see.
Visit our Privacy Policy to learn more. By continuing to use the site, you agree to this use of cookies and data.

Hourly Weather Kuznetsovsk (Varash)

Today, 4 August, Tuesday

Time Temperature Precipitation Wind Pressure Humidity
00:00 +17°C° 0 mm 3 mps 743 mmHg 83%
01:00 +17°C° 0 mm 3 mps 743 mmHg 82%
02:00 +17°C° 0 mm 3 mps 743 mmHg 82%
03:00 +17°C° 0 mm 3 mps 742 mmHg 82%
04:00 +16°C° 0 mm 3 mps 742 mmHg 81%
05:00 +16°C° 0 mm 3 mps 742 mmHg 80%
06:00 +17°C° 0 mm 4 mps 742 mmHg 76%
07:00 +18°C° 0 mm 4 mps 742 mmHg 73%
08:00 +20°C° 0 mm 4 mps 743 mmHg 69%
09:00 +22°C° 0 mm 5 mps 743 mmHg 66%
10:00 +23°C° 0 mm 5 mps 743 mmHg 63%
11:00 +26°C° 0 mm 6 mps 743 mmHg 60%
12:00 +27°C° 0 mm 6 mps 743 mmHg 58%
13:00 +27°C° 0 mm 6 mps 743 mmHg 55%
14:00 +28°C° 0 mm 7 mps 742 mmHg 53%
15:00 +28°C° 0 mm 6 mps 742 mmHg 55%
16:00 +28°C° 0 mm 6 mps 742 mmHg 57%
17:00 +27°C° 0 mm 5 mps 742 mmHg 59%
18:00 +26°C° 0 mm 5 mps 742 mmHg 65%
19:00 +23°C° 0 mm 4 mps 742 mmHg 71%
20:00 +21°C° 0 mm 3 mps 742 mmHg 78%
21:00 +21°C° 0 mm 3 mps 743 mmHg 80%
22:00 +20°C° 0 mm 3 mps 743 mmHg 82%
23:00 +19°C° 0 mm 3 mps 743 mmHg 85%

Tomorrow, 5 August, Wednesday

Time Temperature Precipitation Wind Pressure Humidity
00:00 +19°C° 0.1 mm 3 mps 744 mmHg 85%
01:00 +18°C° 0.1 mm 3 mps 744 mmHg 85%
02:00 +18°C° 0.1 mm 2 mps 744 mmHg 85%
03:00 +17°C° 0 mm 2 mps 744 mmHg 86%
04:00 +17°C° 0 mm 2 mps 744 mmHg 86%
05:00 +17°C° 0 mm 2 mps 745 mmHg 86%
06:00 +18°C° 0 mm 2 mps 745 mmHg 84%
07:00 +21°C° 0 mm 1 mps 745 mmHg 81%
08:00 +22°C° 0 mm 1 mps 746 mmHg 79%
09:00 +23°C° 0 mm 1 mps 746 mmHg 75%
10:00 +24°C° 0 mm 1 mps 747 mmHg 72%
11:00 +25°C° 0 mm 1 mps 747 mmHg 69%
12:00 +26°C° 0 mm 1 mps 747 mmHg 65%
13:00 +27°C° 0 mm 2 mps 748 mmHg 62%
14:00 +28°C° 0 mm 2 mps 748 mmHg 58%
15:00 +28°C° 0 mm 2 mps 748 mmHg 59%
16:00 +28°C° 0 mm 2 mps 748 mmHg 60%
17:00 +27°C° 0 mm 2 mps 748 mmHg 62%
18:00 +26°C° 0 mm 2 mps 748 mmHg 70%
19:00 +24°C° 0 mm 2 mps 748 mmHg 78%
20:00 +23°C° 0 mm 2 mps 748 mmHg 87%
21:00 +21°C° 0 mm 2 mps 749 mmHg 90%
22:00 +20°C° 0 mm 2 mps 749 mmHg 93%
23:00 +20°C° 0 mm 2 mps 749 mmHg 95%

Day after tomorrow, 6 August, Thursday

Time Temperature Precipitation Wind Pressure Humidity
00:00 +19°C° 0 mm 2 mps 749 mmHg 95%
01:00 +19°C° 0 mm 2 mps 749 mmHg 95%
02:00 +20°C° 0 mm 1 mps 749 mmHg 94%
03:00 +19°C° 0 mm 1 mps 750 mmHg 94%
04:00 +19°C° 0 mm 1 mps 750 mmHg 93%
05:00 +18°C° 0 mm 2 mps 750 mmHg 93%
06:00 +20°C° 0 mm 1 mps 750 mmHg 87%
07:00 +22°C° 0 mm 1 mps 751 mmHg 81%
08:00 +23°C° 0 mm 1 mps 751 mmHg 74%
09:00 +25°C° 0 mm 1 mps 751 mmHg 67%
10:00 +27°C° 0 mm 1 mps 751 mmHg 59%
11:00 +29°C° 0 mm 1 mps 752 mmHg 51%
12:00 +30°C° 0 mm 1 mps 752 mmHg 49%
13:00 +30°C° 0 mm 1 mps 752 mmHg 46%
14:00 +31°C° 0 mm 2 mps 752 mmHg 44%
15:00 +30°C° 0 mm 2 mps 751 mmHg 47%
16:00 +30°C° 0 mm 2 mps 751 mmHg 50%
17:00 +29°C° 0 mm 2 mps 751 mmHg 53%
18:00 +28°C° 0 mm 2 mps 751 mmHg 61%
19:00 +26°C° 0 mm 2 mps 751 mmHg 68%
20:00 +24°C° 0 mm 2 mps 751 mmHg 75%
21:00 +23°C° 0 mm 2 mps 752 mmHg 80%
22:00 +21°C° 0 mm 2 mps 752 mmHg 85%
23:00 +20°C° 0 mm 2 mps 752 mmHg 90%

7 August, Friday

Time Temperature Precipitation Wind Pressure Humidity
00:00 +20°C° 0 mm 2 mps 752 mmHg 91%
01:00 +20°C° 0 mm 2 mps 752 mmHg 93%
02:00 +19°C° 0 mm 2 mps 752 mmHg 94%
03:00 +19°C° 0 mm 2 mps 752 mmHg 95%
04:00 +19°C° 0 mm 2 mps 752 mmHg 96%
05:00 +19°C° 0 mm 2 mps 752 mmHg 97%
06:00 +20°C° 0 mm 2 mps 753 mmHg 93%
07:00 +21°C° 0 mm 3 mps 753 mmHg 88%
08:00 +22°C° 0 mm 3 mps 753 mmHg 84%
09:00 +25°C° 0.2 mm 3 mps 753 mmHg 78%
10:00 +26°C° 0.2 mm 3 mps 753 mmHg 71%
11:00 +28°C° 0.2 mm 4 mps 753 mmHg 64%
12:00 +28°C° 0.3 mm 4 mps 753 mmHg 63%
13:00 +28°C° 0.3 mm 3 mps 753 mmHg 61%
14:00 +29°C° 0.3 mm 3 mps 752 mmHg 59%
15:00 +29°C° 0.2 mm 3 mps 752 mmHg 60%
16:00 +28°C° 0.2 mm 4 mps 752 mmHg 60%
17:00 +28°C° 0.2 mm 4 mps 752 mmHg 60%
18:00 +26°C° 0 mm 4 mps 752 mmHg 65%
19:00 +25°C° 0 mm 3 mps 752 mmHg 69%
20:00 +22°C° 0 mm 3 mps 752 mmHg 74%
21:00 +21°C° 0 mm 3 mps 752 mmHg 76%
22:00 +20°C° 0 mm 3 mps 752 mmHg 78%
23:00 +19°C° 0 mm 2 mps 752 mmHg 81%

8 August, Saturday

Time Temperature Precipitation Wind Pressure Humidity
00:00 +19°C° 0 mm 2 mps 752 mmHg 82%
01:00 +18°C° 0 mm 2 mps 752 mmHg 84%
02:00 +18°C° 0 mm 2 mps 752 mmHg 85%
03:00 +17°C° 0 mm 2 mps 752 mmHg 87%
04:00 +17°C° 0 mm 2 mps 752 mmHg 89%
05:00 +16°C° 0 mm 2 mps 752 mmHg 91%
06:00 +18°C° 0 mm 2 mps 752 mmHg 85%
07:00 +20°C° 0 mm 2 mps 752 mmHg 80%
08:00 +21°C° 0 mm 2 mps 752 mmHg 75%
09:00 +23°C° 0 mm 2 mps 752 mmHg 69%
10:00 +25°C° 0 mm 3 mps 752 mmHg 63%
11:00 +26°C° 0 mm 3 mps 752 mmHg 57%
12:00 +27°C° 0 mm 3 mps 751 mmHg 55%
13:00 +27°C° 0 mm 2 mps 751 mmHg 52%
14:00 +28°C° 0 mm 2 mps 750 mmHg 50%
15:00 +28°C° 0 mm 2 mps 750 mmHg 51%
16:00 +28°C° 0 mm 2 mps 750 mmHg 53%
17:00 +27°C° 0 mm 2 mps 750 mmHg 54%
18:00 +26°C° 0 mm 2 mps 749 mmHg 62%
19:00 +24°C° 0 mm 2 mps 749 mmHg 69%
20:00 +21°C° 0 mm 2 mps 749 mmHg 76%
21:00 +21°C° 0 mm 2 mps 749 mmHg 79%
22:00 +20°C° 0 mm 2 mps 749 mmHg 81%
23:00 +20°C° 0 mm 1 mps 749 mmHg 84%

9 August, Sunday

Time Temperature Precipitation Wind Pressure Humidity
00:00 +20°C° 0 mm 1 mps 749 mmHg 85%
01:00 +19°C° 0 mm 1 mps 749 mmHg 87%
02:00 +19°C° 0 mm 1 mps 748 mmHg 89%
03:00 +18°C° 0 mm 1 mps 748 mmHg 90%
04:00 +18°C° 0 mm 1 mps 748 mmHg 90%
05:00 +18°C° 0 mm 1 mps 748 mmHg 91%
06:00 +18°C° 0 mm 0 mps 748 mmHg 85%
07:00 +19°C° 0 mm 0 mps 748 mmHg 79%
08:00 +21°C° 0 mm 0 mps 748 mmHg 73%
09:00 +24°C° 1 mm 1 mps 748 mmHg 70%
10:00 +25°C° 1 mm 1 mps 748 mmHg 67%
11:00 +26°C° 1 mm 2 mps 748 mmHg 65%
12:00 +26°C° 0.7 mm 1 mps 747 mmHg 62%
13:00 +26°C° 0.7 mm 1 mps 747 mmHg 60%
14:00 +27°C° 0.7 mm 1 mps 747 mmHg 58%
15:00 +27°C° 0.5 mm 1 mps 747 mmHg 60%
16:00 +26°C° 0.5 mm 1 mps 747 mmHg 61%
17:00 +26°C° 0.5 mm 1 mps 746 mmHg 63%
18:00 +25°C° 0.4 mm 1 mps 746 mmHg 69%
19:00 +23°C° 0.4 mm 1 mps 746 mmHg 74%
20:00 +21°C° 0.4 mm 1 mps 746 mmHg 80%
21:00 +19°C° 0.2 mm 0 mps 746 mmHg 81%
22:00 +18°C° 0.2 mm 0 mps 746 mmHg 83%
23:00 +18°C° 0.2 mm 0 mps 746 mmHg 85%
Show more